Wind_Speed
63 60 55 51 49 51 53 51 49 52 55 53 52 52 53 54 52 55 59 53 50 55 56 56 60 62 55 47 46 42 37 36 36 36 38 43 44 42 43 44 45 45 45 43 43 44 47 51 51 48 47 45 44 46 45 42 38 31 24 25 28 25 21 22 22 21 23 23 23 22 17 15 17 18 18 20 17 13 12 19 27 29 30 36 40 40
62 58 53 51 51 51 53 52 52 55 56 54 52 52 52 52 52 55 58 53 50 54 56 56 59 62 56 50 49 45 40 39 39 38 38 42 45 44 44 45 46 47 47 47 46 46 48 50 50 50 49 46 46 48 48 46 43 37 30 29 30 28 28 29 26 24 25 24 24 23 20 18 19 20 18 19 21 21 20 26 34 34 34 40 40 37
58 56 54 55 53 52 54 55 56 56 56 55 53 52 50 50 53 54 56 54 49 52 57 56 60 63 56 51 50 47 45 44 41 39 38 40 43 44 45 46 47 49 51 52 52 50 50 49 48 48 48 47 48 50 48 47 45 41 37 35 33 31 30 30 28 28 29 28 25 21 21 20 20 21 20 22 25 24 26 33 38 37 38 41 37 36
55 55 57 59 56 54 55 56 57 57 57 56 53 52 49 49 54 52 53 54 48 51 59 57 61 63 53 48 51 50 49 47 44 41 39 39 41 42 43 45 49 51 51 52 54 53 51 49 48 47 47 46 49 51 49 46 44 41 40 38 35 33 31 28 27 28 29 29 25 22 23 24 24 24 23 26 25 24 29 37 40 38 42 41 38 39
55 58 61 62 59 55 54 55 57 58 58 56 53 52 49 50 51 48 53 55 48 52 60 58 61 60 50 48 51 52 51 49 47 46 42 40 40 42 43 45 49 52 50 51 54 54 52 49 46 46 47 48 49 49 46 42 40 40 42 39 36 36 34 30 28 29 29 27 26 26 27 28 28 25 25 26 26 28 33 39 41 41 45 43 41 43
58 61 64 63 61 57 54 55 56 57 57 55 53 51 48 49 49 50 58 56 48 52 59 58 58 55 48 48 50 50 50 51 51 49 46 43 41 43 46 46 48 50 51 52 54 55 53 49 46 45 47 49 49 47 44 41 38 39 42 42 39 37 35 32 31 31 28 26 26 28 29 30 30 26 28 27 30 34 39 42 43 45 48 46 45 46
60 61 63 62 61 59 56 56 56 57 57 54 52 50 50 51 50 55 60 52 48 53 58 58 56 53 48 47 48 50 51 52 52 50 49 47 45 45 47 46 46 49 52 53 55 55 54 51 48 47 47 48 49 47 46 45 41 38 41 43 39 37 35 33 33 31 28 27 28 29 30 31 29 31 33 34 37 41 44 45 47 49 51 49 48 47
59 60 62 62 62 61 59 55 54 56 57 53 50 51 53 53 54 58 56 48 48 53 58 58 55 52 48 45 48 52 54 54 52 51 50 50 49 47 46 46 46 48 52 55 56 57 56 54 51 49 47 47 46 45 46 47 43 38 40 41 38 36 35 33 32 31 29 28 30 32 31 29 30 35 38 39 42 44 47 48 50 52 53 50 48 47
61 61 61 62 63 62 59 54 53 57 56 52 52 55 57 56 55 56 53 49 50 54 58 58 54 50 47 47 49 49 52 53 50 52 54 52 50 47 46 47 45 44 50 55 56 57 58 58 55 52 49 47 43 40 41 43 41 38 39 39 38 38 37 36 34 32 31 30 32 36 35 30 31 35 39 41 43 47 49 50 53 54 51 48 46 45
63 61 61 63 63 62 60 56 55 57 56 54 56 59 60 57 56 55 53 53 52 53 57 56 50 48 47 50 50 46 49 52 50 51 54 53 51 48 48 48 45 43 47 52 54 55 58 59 58 54 52 50 44 37 37 41 41 39 39 39 39 39 38 38 38 35 34 34 35 39 39 36 34 36 39 42 45 48 50 53 55 52 49 46 45 44
64 63 62 63 63 63 63 59 57 57 56 56 60 62 60 58 57 55 54 54 49 49 54 52 47 47 49 52 50 47 50 53 52 51 51 51 51 49 49 49 48 46 47 49 50 53 55 56 56 55 55 53 47 40 38 40 42 41 41 41 40 40 39 39 40 39 37 36 36 37 38 39 38 39 41 44 47 50 55 58 56 52 48 47 45 45
64 65 62 62 64 65 64 61 58 56 55 59 63 62 60 59 59 56 54 50 42 42 49 49 47 50 53 52 48 49 51 52 54 55 52 51 50 50 49 49 48 47 47 48 48 52 53 52 52 54 55 52 48 46 44 42 43 44 44 42 40 41 42 41 42 42 40 38 37 36 36 38 39 41 45 48 52 56 59 58 54 51 48 46 46 46
66 66 64 63 64 63 63 61 60 57 57 62 63 60 59 60 58 53 49 41 34 41 50 51 52 54 55 50 46 49 51 51 53 56 57 55 52 52 52 51 50 48 47 47 48 50 50 51 51 51 51 49 45 46 46 44 44 45 46 43 39 41 44 44 44 45 43 40 39 37 38 40 43 45 49 52 54 54 52 50 49 48 46 46 47 47
70 68 64 61 60 60 63 64 62 56 57 62 59 56 58 58 54 49 44 37 36 46 52 54 56 53 50 48 47 50 52 52 53 54 57 57 53 51 52 53 52 49 47 48 50 49 48 51 53 52 50 47 44 44 46 44 43 45 46 43 39 41 45 46 46 46 44 41 40 41 43 45 48 50 51 52 50 48 47 48 48 48 48 49 49 50
70 65 59 57 58 60 62 64 61 56 57 61 57 55 57 57 53 48 43 40 42 49 54 56 55 47 45 50 51 51 51 52 53 53 57 59 55 51 51 51 50 49 49 51 50 47 47 50 52 53 54 51 47 45 47 47 45 46 47 44 41 42 44 46 48 48 47 44 44 45 48 50 52 53 53 52 50 50 50 50 50 51 51 52 52 52
68 62 58 58 60 62 63 64 62 58 59 62 58 55 56 55 53 49 48 47 48 52 56 57 53 46 48 54 53 50 51 52 51 50 54 59 58 55 53 51 51 53 53 53 51 46 45 48 50 52 56 56 52 49 49 50 50 49 48 48 47 46 46 46 48 51 50 49 49 50 52 53 54 54 54 53 53 52 51 51 52 53 53 53 53 53
67 64 62 62 64 63 62 63 62 58 59 61 56 52 53 56 57 55 54 52 50 53 55 54 51 47 49 53 50 48 50 51 49 47 49 54 57 56 55 54 55 56 56 54 50 45 45 49 52 53 54 56 57 55 53 54 53 52 51 51 52 51 50 49 48 50 52 52 52 52 54 55 56 56 55 55 54 53 52 53 53 54 54 54 53 53
69 66 64 66 66 64 63 65 64 60 60 59 52 48 55 62 63 59 55 52 50 51 51 51 51 48 49 51 48 46 48 51 51 48 47 49 52 54 56 56 56 58 60 56 50 48 49 50 52 55 56 58 59 59 58 57 57 56 54 53 54 54 54 54 52 52 53 55 55 55 55 56 56 57 57 56 56 55 54 54 54 54 54 54 54 54
71 67 66 68 67 65 65 67 64 59 59 57 51 54 63 65 61 57 53 49 48 47 47 49 50 49 50 51 48 46 48 50 52 51 50 49 50 53 56 56 57 59 61 60 56 54 54 52 51 54 57 59 60 61 61 60 60 60 58 57 57 56 57 58 57 57 57 58 58 58 58 58 58 58 58 58 57 56 56 56 55 55 55 56 57 57
71 68 68 69 68 67 67 65 61 58 58 58 56 60 64 62 59 56 51 48 47 46 46 48 49 48 49 49 48 48 48 48 51 53 52 52 53 55 55 54 56 60 62 62 62 60 59 55 52 53 55 58 61 61 61 62 63 62 62 61 60 60 60 60 61 61 61 62 61 61 61 61 61 60 60 59 59 58 58 57 57 57 58 58 59 60
70 69 68 69 69 67 63 60 58 58 59 59 56 56 59 59 58 55 51 49 48 46 45 47 47 47 48 49 48 48 48 48 51 51 50 54 57 57 55 55 58 61 61 61 63 64 62 58 55 55 56 58 60 61 62 63 64 64 64 63 62 61 61 61 62 63 64 65 64 64 64 64 64 63 62 62 61 60 59 58 58 59 59 59 58 58
69 69 67 68 68 63 59 59 59 60 60 59 55 53 57 60 58 55 51 49 47 45 44 46 46 47 50 50 49 48 49 50 52 51 50 53 56 56 55 58 59 60 61 61 62 64 63 60 58 58 59 61 61 62 62 63 64 65 65 65 64 63 62 61 61 62 64 66 66 66 65 65 65 64 63 63 61 60 59 58 58 57 57 57 57 57
69 69 67 67 65 61 60 62 62 60 59 58 55 55 60 62 58 54 50 47 46 46 46 47 49 52 53 52 50 49 50 51 52 51 51 52 55 55 56 58 60 61 61 62 62 63 63 61 60 60 61 63 64 64 64 64 65 65 65 66 66 66 65 64 62 61 61 63 64 65 65 65 64 63 62 61 59 58 57 56 56 56 57 58 59 60
69 69 66 66 65 62 63 64 63 62 60 57 54 55 61 60 56 53 52 51 51 50 48 49 51 52 50 50 51 50 49 51 51 50 50 52 54 57 57 59 62 62 61 62 63 63 62 61 61 62 62 62 64 65 65 66 66 66 67 67 68 68 68 67 66 64 63 62 63 64 65 65 65 64 63 62 61 60 60 60 60 60 61 63 64 65
67 67 64 63 64 63 63 63 60 56 53 51 50 54 59 59 56 56 56 56 53 49 46 46 49 49 48 50 51 50 50 52 52 50 49 50 53 56 59 61 61 60 59 60 61 62 62 61 61 62 62 62 63 63 64 66 67 68 68 68 69 69 69 69 68 68 67 67 66 66 66 67 67 67 67 67 66 66 66 66 65 66 66 66 67 67
66 64 61 60 61 60 59 57 52 48 48 49 52 55 58 60 59 57 57 55 51 47 45 48 50 50 50 51 52 51 51 53 55 53 48 49 54 56 58 60 61 61 59 58 59 60 60 60 60 61 62 63 63 63 63 64 66 67 68 69 69 70 70 70 70 69 69 69 69 68 68 67 67 67 68 68 68 68 68 67 67 67 66 66 66 65
62 61 58 57 58 59 58 57 54 52 51 53 55 56 57 59 58 58 57 54 50 48 48 51 52 50 50 52 52 51 51 53 55 53 49 51 56 59 59 59 61 62 61 59 57 56 55 55 55 56 58 60 62 62 63 63 64 65 66 67 68 69 69 69 70 69 69 69 69 69 68 67 66 66 66 66 66 65 65 65 65 64 64 65 65 66
58 58 56 56 59 61 60 60 59 58 56 57 58 57 57 59 59 59 58 54 51 50 48 51 52 48 48 53 54 51 52 53 52 52 53 55 58 61 62 61 61 61 60 58 55 53 52 51 50 51 53 56 58 59 59 60 61 62 63 64 66 67 67 67 67 67 67 68 68 69 68 66 66 66 64 63 64 63 63 64 64 64 64 65 65 66
57 56 55 57 60 61 60 60 60 58 56 57 57 56 58 61 61 59 56 53 52 50 48 52 53 48 47 53 54 52 52 52 52 53 57 58 58 60 62 61 61 61 60 58 56 53 49 46 47 49 50 51 53 54 56 58 58 59 59 60 62 63 64 64 64 63 63 64 64 65 65 64 63 63 61 61 62 62 62 63 63 63 63 63 65 66
54 54 55 58 60 60 61 61 60 56 55 55 54 55 59 62 60 58 56 54 53 52 52 55 54 49 48 52 53 50 49 52 55 57 57 58 59 61 62 62 62 61 59 58 56 53 48 46 46 48 48 48 48 51 54 55 55 56 56 57 59 60 60 60 60 60 60 59 59 59 59 58 58 58 58 58 59 60 61 62 63 63 64 66 67 68
53 55 57 59 60 60 62 60 56 54 54 54 54 55 59 60 59 57 56 55 55 56 56 54 52 50 48 50 53 52 49 51 56 57 57 58 58 59 61 61 61 61 60 58 55 51 49 48 47 49 49 46 46 50 52 51 51 51 52 54 55 56 56 56 56 56 55 55 55 55 55 55 55 56 57 58 59 61 63 64 66 67 68 69 70 70
57 59 58 59 59 59 59 57 54 54 55 54 54 55 57 58 57 57 56 55 55 57 57 55 53 51 48 48 52 55 53 52 53 56 58 59 58 57 58 59 59 59 59 56 54 52 51 51 52 52 50 44 43 47 48 47 47 47 48 50 50 50 51 51 51 51 50 50 50 50 51 52 53 54 56 57 59 61 63 66 67 68 69 70 70 71
58 57 57 57 57 58 58 56 54 53 52 51 51 54 56 57 56 56 56 55 55 57 58 57 54 52 50 48 51 57 57 54 54 56 59 61 60 57 56 57 57 57 56 54 52 52 53 54 55 53 48 42 41 43 43 42 44 46 48 49 48 48 48 48 47 47 47 46 47 47 48 50 51 53 54 55 57 59 61 63 65 66 68 68 69 70
56 55 56 57 58 59 58 56 53 51 49 49 51 55 56 57 56 56 55 55 56 57 58 56 54 53 51 48 50 56 61 60 58 56 58 62 62 59 57 56 55 55 55 54 54 54 54 55 53 50 47 44 43 43 43 42 43 46 48 49 49 48 47 46 46 46 46 46 47 47 47 48 49 50 52 53 55 57 59 61 63 64 65 66 67 68
56 56 57 57 58 58 56 53 51 49 49 52 55 56 57 57 56 56 55 56 56 57 57 56 55 54 51 49 49 54 59 61 60 57 56 60 63 62 58 55 53 53 54 55 55 55 54 54 53 50 50 49 47 46 47 46 45 48 50 49 48 48 47 48 48 48 49 50 51 50 49 49 49 50 51 53 55 57 60 62 63 64 66 67 68 69
57 57 57 57 57 57 53 51 50 50 51 54 56 57 57 58 57 56 56 55 55 55 56 56 56 55 53 51 51 51 54 58 59 58 57 58 61 63 61 58 56 55 55 56 56 54 53 53 54 53 52 52 50 48 49 47 45 48 50 49 48 48 49 50 49 49 50 52 52 52 52 53 53 53 54 55 57 60 62 64 65 66 67 69 70 71
57 57 56 56 57 55 52 51 52 51 52 54 56 57 57 57 57 56 55 55 55 55 55 55 56 56 54 52 51 50 50 55 59 59 58 59 60 60 60 60 59 58 56 56 56 55 53 53 54 53 53 52 50 48 47 43 40 43 47 49 48 49 49 50 50 51 52 52 52 52 54 55 56 56 57 59 61 63 66 67 68 69 70 71 72 73
56 56 56 56 56 54 52 52 51 51 52 54 56 56 56 56 55 54 55 55 55 55 56 55 56 56 55 53 52 50 49 52 56 57 59 62 62 60 58 59 60 60 59 58 57 56 54 54 55 55 55 54 52 49 46 41 37 40 46 49 49 49 49 49 50 51 51 52 52 53 54 55 56 58 60 62 64 67 69 70 71 71 72 72 73 74
54 54 54 54 54 52 51 51 50 51 52 53 54 54 53 54 54 54 55 55 54 55 56 56 56 56 56 56 54 50 50 53 55 57 60 63 62 59 59 60 59 59 60 61 61 58 56 54 55 56 56 56 55 52 48 45 45 47 51 53 52 50 49 49 50 49 49 51 53 54 55 56 58 60 63 65 66 68 70 72 73 73 74 74 75 76
50 51 51 51 51 51 50 50 49 50 50 51 52 52 52 53 53 53 54 54 55 55 56 56 57 57 57 57 54 50 53 55 54 56 62 64 60 58 58 60 60 59 60 62 62 59 57 55 54 55 57 58 57 54 52 51 52 54 56 57 57 56 56 56 56 54 53 54 56 57 58 59 61 63 64 65 67 68 70 72 73 75 75 76 77 77
47 47 48 49 50 51 50 50 49 49 49 50 52 52 51 52 53 53 53 54 55 55 54 56 58 58 58 58 54 52 56 56 52 54 60 61 59 58 57 58 59 59 60 62 62 61 60 58 56 57 58 58 57 56 54 53 54 55 57 59 59 60 60 60 61 60 60 60 61 61 61 62 64 65 66 67 69 71 73 74 75 77 77 77 78 78
46 47 47 49 51 52 51 51 50 49 49 50 50 50 50 50 51 51 52 53 55 55 54 56 57 57 59 59 55 54 56 54 50 53 58 58 58 59 59 57 57 57 58 59 61 62 62 61 60 60 59 58 58 57 56 55 55 57 58 59 59 60 61 61 62 62 62 62 62 62 63 64 65 67 68 70 72 74 75 77 77 78 78 78 79 78
46 47 48 50 52 52 52 52 51 49 49 49 49 49 49 48 49 49 51 54 55 54 55 56 57 58 59 58 56 55 56 52 48 52 56 56 57 60 61 60 58 57 57 57 59 61 62 63 63 62 61 60 60 59 58 58 57 58 59 59 60 61 62 62 62 62 62 62 63 64 65 66 67 69 71 73 74 76 76 77 77 77 77 78 77 76
45 47 48 50 51 52 53 52 51 51 51 50 50 49 48 47 48 50 52 53 54 54 55 55 57 58 59 58 57 56 54 50 50 51 53 54 57 59 60 60 58 58 58 57 58 60 62 63 64 63 62 62 61 62 61 60 59 60 60 60 62 63 63 64 64 64 64 65 66 67 69 70 71 73 74 74 75 75 75 75 76 76 76 75 73 72
45 46 48 49 50 51 52 51 51 52 52 51 50 50 49 48 48 49 49 50 52 53 54 55 56 58 57 56 56 55 52 52 52 52 53 55 57 57 58 58 58 58 57 56 57 59 61 63 63 63 63 62 62 62 62 61 62 62 62 62 63 63 64 64 65 65 66 66 67 68 70 71 72 73 73 73 73 73 73 73 73 73 72 70 69 68
44 45 47 49 50 50 50 50 51 52 52 51 50 50 50 49 48 47 47 48 49 50 52 53 54 55 56 55 55 53 53 52 51 51 54 56 56 55 55 56 56 57 56 56 57 59 61 62 63 64 64 64 64 64 64 64 64 65 64 64 64 64 64 64 65 65 66 66 67 68 69 70 70 71 71 71 71 71 71 70 70 69 67 66 66 66
42 43 46 48 47 47 47 49 50 50 50 51 51 50 49 49 48 47 47 48 48 48 49 50 52 53 52 51 51 51 51 51 51 51 54 56 55 54 54 54 54 55 55 55 57 59 61 62 63 64 65 65 65 65 65 65 66 66 66 65 65 64 64 64 64 65 65 66 67 67 68 68 69 69 69 69 69 69 68 67 66 65 65 64 65 66
38 40 43 45 45 45 46 47 46 47 49 51 51 51 49 49 48 48 48 49 49 49 49 49 50 51 49 47 47 48 49 50 51 52 53 53 53 52 52 53 54 54 54 55 56 58 60 62 63 64 64 64 65 65 65 65 66 66 66 66 65 64 64 64 64 64 65 66 66 67 67 67 68 68 68 68 67 67 65 65 64 63 63 64 65 66
34 36 39 41 42 43 43 42 43 46 49 50 50 50 49 49 48 47 49 49 48 50 51 50 48 48 47 46 47 48 48 48 49 51 52 52 51 51 51 52 52 52 53 55 56 58 59 60 62 63 63 64 64 64 64 65 66 66 66 65 64 63 63 63 64 64 65 65 65 66 66 67 67 67 67 66 65 64 63 63 62 62 63 64 65 66
32 33 34 36 36 37 38 39 40 43 46 46 46 46 47 47 46 46 48 48 48 48 50 50 49 48 48 47 46 47 47 48 49 49 50 49 49 49 51 52 52 52 53 54 56 58 59 60 61 62 63 63 64 64 65 65 66 65 64 63 63 62 62 63 64 64 65 65 65 66 67 67 66 66 65 64 63 63 62 62 61 62 63 64 65 67
30 29 30 31 32 34 37 36 35 37 41 43 42 42 42 43 43 43 44 45 46 46 46 46 47 48 48 47 46 45 45 47 49 49 48 48 48 49 50 51 52 52 53 54 55 56 58 59 61 62 62 63 64 64 64 64 64 63 63 63 63 63 63 64 64 64 64 65 66 66 66 65 65 64 63 63 62 61 61 61 61 62 63 64 65 66
Wind_Direction
239 239 239 241 241 240 239 239 236 235 236 236 236 236 235 235 231 232 235 227 224 229 228 227 230 232 229 223 224 221 218 219 214 212 211 209 210 209 209 207 209 211 209 209 213 217 223 226 229 233 235 238 239 240 246 254 256 255 248 240 239 237 244 254 254 261 269 270 274 276 269 256 256 258 265 273 256 227 239 253 253 260 284 300 302 301
238 239 239 239 239 237 235 234 232 233 235 235 235 235 234 234 231 231 234 227 222 228 227 225 228 231 227 222 223 221 217 219 217 216 213 211 211 210 210 210 212 214 211 212 215 219 226 230 232 233 234 237 241 243 248 252 255 256 249 243 247 247 248 251 251 258 260 259 264 268 266 255 250 254 254 249 234 218 224 241 246 256 283 299 299 299
238 238 238 238 237 236 234 231 231 231 233 234 233 234 234 234 232 230 233 229 221 226 228 225 227 229 225 220 222 221 218 218 219 218 216 215 215 214 212 210 211 213 214 216 217 219 224 230 233 234 235 238 241 245 250 252 254 255 250 247 249 249 247 246 251 256 254 255 259 263 263 251 251 261 246 225 224 220 226 240 242 254 285 299 296 298
236 235 236 237 236 235 234 232 231 231 231 232 232 234 234 233 233 231 233 231 220 224 229 225 227 230 224 218 220 221 219 219 220 219 217 217 218 217 215 211 211 213 214 215 217 221 226 229 232 232 235 240 243 246 249 249 252 252 247 246 247 248 245 243 248 251 253 257 256 255 255 254 262 263 236 218 222 221 227 238 241 259 289 297 293 297
233 232 232 234 234 234 234 232 231 231 232 233 232 233 232 233 234 231 232 229 218 222 229 226 227 230 223 218 219 220 219 219 219 220 219 218 219 218 217 214 212 214 214 215 218 222 226 230 232 233 236 239 241 245 246 245 250 248 242 242 244 247 246 243 245 248 252 256 254 253 251 261 272 253 223 221 230 228 230 238 246 267 290 293 292 296
232 231 231 232 233 232 233 232 231 232 232 233 233 233 233 233 233 230 231 227 216 221 229 227 228 228 222 217 217 217 218 218 218 218 218 220 221 220 220 217 213 214 217 219 221 223 226 230 234 236 236 236 239 243 243 244 250 247 240 240 242 244 245 243 245 247 246 246 250 251 250 264 267 237 218 225 231 232 235 242 253 272 289 290 291 294
231 231 231 232 233 232 231 230 229 231 232 232 232 232 232 231 229 228 231 226 218 222 229 228 227 226 220 216 215 214 215 216 215 215 217 219 221 223 223 219 214 215 219 223 225 225 227 230 234 238 237 236 237 240 242 246 252 247 239 241 241 242 244 242 242 241 238 240 245 248 253 263 252 223 220 229 232 238 243 249 259 276 287 288 289 292
232 232 231 231 233 233 232 232 230 230 231 231 230 230 230 230 228 230 233 228 220 223 228 228 226 224 219 215 214 213 213 213 213 213 214 217 221 224 226 223 219 218 219 223 228 229 229 230 234 238 239 241 242 243 245 248 251 245 238 240 238 237 241 240 236 234 235 241 243 247 257 257 236 222 225 231 237 245 250 254 265 279 286 287 289 290
232 232 231 231 232 233 233 233 232 231 230 228 227 228 229 229 230 231 233 231 222 222 228 228 226 224 220 216 214 213 213 212 212 212 212 216 221 224 227 227 224 222 221 223 227 229 229 230 234 238 241 246 247 247 248 245 245 242 238 238 235 235 239 238 236 235 237 241 242 250 256 245 233 233 234 235 242 247 251 259 273 283 287 287 289 290
231 231 230 230 230 232 232 232 232 231 230 227 224 226 228 228 230 230 231 231 224 221 228 229 227 225 222 218 214 213 213 211 211 212 211 213 218 221 226 228 225 222 223 225 226 228 229 231 234 237 242 247 248 247 247 242 240 241 240 240 238 237 237 237 239 240 237 239 245 253 252 238 233 239 240 243 247 248 256 268 279 285 286 287 289 290
229 230 229 229 228 229 230 230 230 230 229 227 225 226 227 227 229 229 230 232 225 221 228 230 227 226 225 220 214 212 212 210 210 210 210 214 217 219 222 225 224 222 226 230 230 228 229 231 235 238 242 246 247 247 248 242 238 240 242 244 242 240 237 236 240 241 236 240 250 253 247 238 236 239 241 245 249 255 266 275 280 283 284 286 289 291
229 231 230 229 228 228 230 230 230 229 227 227 227 226 227 228 230 230 230 233 229 223 229 231 227 225 225 221 215 215 212 209 211 210 209 214 216 217 219 221 223 224 228 233 233 231 229 230 235 238 241 246 247 247 248 244 237 237 242 245 244 240 238 237 239 238 236 243 250 247 242 242 242 243 247 253 259 266 273 276 278 280 283 287 289 291
229 231 230 230 229 229 231 230 230 229 226 227 228 227 229 231 233 233 234 236 230 224 228 230 226 224 224 221 215 217 215 208 210 212 210 213 216 218 218 220 223 225 229 232 234 232 228 227 232 236 241 246 247 245 244 244 238 235 238 243 244 240 237 238 237 237 240 245 245 238 237 242 245 250 257 263 267 271 274 275 277 280 285 288 290 291
227 229 230 231 231 230 231 232 231 231 231 231 231 230 231 234 236 236 237 235 227 224 226 228 228 225 226 223 215 216 216 210 210 214 213 212 215 219 220 221 223 224 227 231 233 232 227 227 230 233 239 245 245 242 240 242 240 236 236 240 243 240 236 236 237 240 244 243 238 235 237 242 249 257 264 267 270 272 275 277 279 282 286 289 290 291
228 230 231 232 232 230 231 233 232 231 232 232 231 230 230 232 235 235 235 232 225 224 225 228 229 224 224 226 218 214 215 211 210 215 217 214 213 217 219 220 221 224 229 231 231 229 227 227 230 232 237 241 243 241 240 241 242 240 237 237 240 239 238 238 240 244 245 240 237 238 242 247 254 261 265 269 272 275 277 279 281 283 286 288 289 290
226 227 228 229 230 228 229 232 232 230 230 231 229 227 228 231 233 231 230 227 223 223 225 227 227 220 220 225 221 214 215 213 209 212 217 217 215 216 218 221 223 224 228 229 227 226 225 227 229 232 236 238 240 240 241 242 243 242 239 237 237 238 241 243 243 243 242 240 240 243 247 252 257 262 266 271 275 277 279 280 281 284 286 287 289 290
226 225 224 225 227 227 227 230 230 229 231 232 229 227 227 229 230 228 227 226 223 224 225 228 227 221 221 224 222 217 216 216 212 209 214 217 218 218 218 222 225 225 226 227 223 221 224 228 229 230 234 236 238 239 240 243 243 242 241 239 238 239 241 244 245 243 242 242 245 248 251 256 260 263 268 272 276 278 279 280 282 284 285 287 288 289
226 225 224 225 226 226 225 227 228 226 228 231 228 225 225 226 227 226 227 227 226 226 227 228 227 222 222 225 222 218 216 217 214 209 210 214 217 219 221 223 225 226 227 226 220 218 223 228 230 231 234 236 237 238 238 240 242 242 241 240 240 241 241 242 245 245 245 247 249 252 255 259 262 265 269 272 275 277 279 281 282 283 284 285 286 286
224 224 224 225 225 224 224 226 227 226 228 229 224 220 222 225 227 228 228 229 229 229 229 229 227 223 223 225 223 219 217 217 215 211 211 212 214 219 223 225 226 228 228 225 219 220 223 227 231 233 235 236 238 238 238 239 240 241 242 242 242 243 243 243 245 246 247 249 251 254 257 260 264 268 270 272 275 277 279 281 282 282 283 283 284 286
222 222 224 226 226 225 225 226 227 227 229 229 223 220 223 225 228 229 229 229 230 229 228 229 227 224 225 226 223 221 219 218 218 216 214 212 213 216 219 223 226 228 229 225 221 221 223 226 231 233 235 237 238 240 241 241 242 243 244 245 245 245 245 245 246 247 249 251 252 255 257 261 265 268 271 273 276 278 280 281 282 283 284 285 286 288
221 222 223 225 227 227 227 229 229 228 229 230 226 223 225 227 228 229 228 228 229 228 227 228 226 224 225 226 224 223 221 219 219 217 213 212 215 216 217 221 227 228 229 227 224 224 226 228 232 235 237 238 240 242 244 245 245 245 246 247 248 249 248 248 248 248 249 252 254 256 259 262 265 268 271 273 276 278 280 282 284 285 286 288 289 289
222 222 222 225 227 227 228 228 228 227 228 230 227 222 224 227 228 229 229 229 230 230 228 226 225 222 223 224 223 222 222 221 220 217 213 213 215 217 219 222 226 228 230 229 228 228 229 231 235 239 239 240 242 245 246 247 248 248 249 249 251 252 252 252 252 251 251 252 255 257 260 263 265 267 270 272 275 278 280 282 284 285 286 288 288 290
221 222 222 225 226 224 225 225 226 226 227 228 225 219 220 225 226 227 229 229 230 229 227 224 223 221 220 222 221 220 221 223 222 219 216 214 215 217 220 223 226 228 230 230 230 231 233 234 237 241 242 242 245 247 248 248 249 250 250 251 252 253 254 255 255 255 255 255 256 258 260 262 264 266 269 272 274 278 279 281 282 284 285 286 288 289
220 221 221 223 224 222 222 223 224 225 226 227 225 220 221 224 225 225 226 227 226 226 224 224 224 222 220 222 222 219 220 223 223 221 218 218 218 218 220 224 227 228 231 232 232 233 235 236 238 241 243 244 246 248 249 249 250 251 252 252 253 254 255 256 257 258 258 259 259 261 262 264 266 268 270 272 274 276 278 280 282 283 285 286 288 290
219 221 220 223 224 223 223 225 227 227 228 229 227 224 223 225 225 224 225 226 226 225 224 224 226 224 220 222 224 220 219 223 223 220 217 218 220 220 222 225 226 228 231 233 234 235 236 237 239 241 244 246 248 249 251 252 252 253 254 254 255 255 256 257 258 260 261 262 263 265 266 267 269 271 272 274 275 277 278 280 281 283 285 287 288 290
217 219 219 221 225 225 226 229 232 232 231 230 228 224 223 224 225 225 227 228 227 225 223 223 224 222 218 220 224 221 219 222 224 220 216 218 221 222 224 226 227 228 231 233 234 234 236 238 240 243 245 247 250 251 253 254 255 255 256 257 258 258 258 259 260 262 263 264 266 267 269 271 272 273 275 275 276 277 278 280 281 283 285 286 288 289
217 218 217 219 222 224 224 224 226 226 225 226 226 224 223 224 225 226 227 229 228 226 225 226 226 222 216 218 222 222 220 222 225 222 218 219 222 223 225 227 228 229 231 234 235 235 236 239 242 245 247 249 251 252 254 256 257 257 258 259 260 261 261 262 263 264 266 267 268 269 271 273 274 275 276 276 276 277 278 279 280 282 284 286 287 288
216 218 217 217 220 222 222 222 223 223 221 222 223 221 220 222 223 225 227 228 228 228 228 230 232 227 218 217 221 223 221 220 223 223 221 221 223 224 226 229 230 230 231 233 236 237 237 240 244 248 250 251 252 253 254 256 258 258 259 260 261 262 263 264 265 266 268 270 271 272 273 274 275 275 275 275 275 276 276 278 279 281 284 285 286 287
213 216 216 217 219 221 222 223 224 225 223 223 222 218 217 220 222 223 226 227 227 228 227 229 232 228 221 218 219 222 222 221 222 223 223 224 225 226 227 229 231 232 233 234 237 237 237 241 247 250 252 253 254 255 256 256 258 260 260 261 262 263 264 265 266 267 269 271 273 274 275 275 275 276 275 274 275 275 276 278 279 281 282 284 286 288
212 215 215 217 219 221 223 224 224 226 226 226 224 220 218 220 221 222 224 225 226 227 226 228 230 228 224 219 217 220 222 222 223 223 223 226 228 228 228 229 231 233 233 235 238 238 238 243 247 249 253 256 255 255 256 257 259 261 262 263 264 265 265 266 267 269 270 271 273 274 275 275 275 275 275 274 274 274 275 276 278 279 282 285 287 289
211 214 215 216 218 220 223 226 226 226 227 226 224 222 220 221 221 222 223 223 224 225 227 229 231 230 228 223 218 219 221 223 225 224 224 226 229 230 230 230 232 234 234 235 237 238 240 243 246 249 254 256 254 254 257 260 261 263 264 265 266 266 267 268 269 270 271 272 273 273 274 274 274 274 274 273 273 273 274 275 276 279 282 284 287 289
211 213 213 215 218 220 224 226 225 225 227 226 223 222 222 223 224 223 223 222 223 225 226 227 228 229 229 226 222 220 221 224 227 226 225 228 231 232 232 233 234 235 236 237 238 239 240 242 246 250 253 254 253 255 259 261 261 262 265 266 267 268 269 269 269 270 271 272 272 272 272 273 273 274 275 275 275 275 275 276 277 279 281 283 285 287
212 213 214 216 219 222 225 226 225 225 226 226 224 223 223 224 225 225 225 224 224 225 226 226 226 227 228 226 223 221 221 223 226 226 227 229 230 232 233 234 236 237 238 238 237 237 239 242 246 250 252 252 249 252 258 259 257 260 264 266 266 268 270 271 271 271 271 271 272 271 271 272 274 276 278 278 278 278 279 279 280 280 282 284 286 288
212 214 216 218 220 224 225 226 225 225 224 224 223 222 223 224 225 225 226 225 225 226 227 227 227 229 229 226 224 223 223 224 225 226 227 229 230 232 233 234 236 239 239 239 238 237 238 241 245 248 251 250 246 247 254 255 253 257 263 265 266 267 268 269 269 270 270 269 270 271 272 274 277 278 279 279 280 280 280 280 281 282 284 286 288 290
211 213 216 219 222 225 225 225 225 223 221 220 220 221 222 224 225 225 226 226 225 226 227 227 228 230 230 229 227 226 226 226 226 227 229 230 232 233 233 234 237 239 239 239 238 238 238 240 244 247 249 249 246 247 251 251 251 257 263 264 266 267 267 267 266 267 266 266 267 269 271 275 277 278 279 279 279 280 280 281 282 284 285 287 290 292
212 214 217 219 223 225 224 224 223 221 218 218 219 220 221 223 224 225 226 225 225 226 227 227 228 231 231 230 230 230 228 227 227 228 230 231 232 233 234 234 237 238 239 239 239 239 240 241 243 245 246 248 247 247 250 251 255 262 264 265 266 268 267 266 266 267 267 266 266 268 271 274 276 277 278 279 281 282 283 283 284 285 287 289 290 292
214 216 218 220 223 224 222 221 221 219 218 219 220 221 222 223 224 225 225 225 223 224 225 227 229 231 233 233 234 234 232 230 228 229 231 233 233 234 234 234 235 236 238 239 240 240 241 242 243 243 244 246 247 247 249 251 255 260 262 263 264 264 264 264 266 268 269 269 269 271 273 275 275 277 279 281 282 283 284 285 286 287 288 290 291 293
215 217 219 221 223 223 222 221 220 218 218 219 221 222 223 224 226 225 225 224 223 223 223 225 228 231 233 233 234 235 236 234 231 229 231 234 234 234 234 235 235 235 237 239 239 239 240 243 244 244 245 246 246 245 245 244 243 247 252 256 258 258 259 261 265 268 270 271 273 274 275 275 276 277 279 281 282 283 284 286 287 288 290 291 292 294
216 218 219 221 223 224 223 222 220 219 220 221 222 223 224 226 227 226 224 223 222 223 223 224 227 231 232 233 233 234 236 236 232 229 230 231 232 233 234 235 236 236 237 238 238 238 239 241 243 244 245 246 246 244 242 239 237 240 247 252 255 256 258 260 264 267 270 271 273 274 275 276 277 278 280 280 282 283 286 288 290 291 293 294 295 296
218 219 220 222 224 224 224 223 222 221 222 223 224 225 225 226 226 226 224 222 222 223 223 224 226 229 232 234 233 233 235 236 234 232 232 230 230 232 235 237 237 237 237 238 238 238 238 240 243 245 245 246 246 245 242 240 239 242 247 252 256 259 262 263 265 266 268 269 271 273 274 276 277 278 279 281 282 284 287 289 292 293 294 295 296 297
220 220 221 221 223 224 225 225 225 224 223 224 226 227 227 226 226 224 223 222 222 223 223 224 226 229 231 233 232 232 236 237 235 235 235 232 230 231 234 236 237 238 238 238 238 238 238 240 243 245 244 245 246 246 245 244 243 244 248 252 257 260 263 266 266 267 267 268 270 271 273 274 276 277 279 281 283 285 287 289 290 292 293 294 295 296
218 219 218 219 221 223 224 225 226 226 226 227 228 229 228 227 225 224 222 221 222 223 224 225 228 229 232 233 232 233 238 239 236 237 237 234 231 231 232 233 236 238 240 240 240 239 240 241 243 244 246 247 249 249 249 248 247 247 249 252 256 259 262 265 267 267 268 269 270 272 274 275 276 277 279 281 283 285 286 288 289 291 292 293 294 295
217 217 218 218 219 222 223 225 226 227 228 229 229 229 229 227 225 223 222 222 222 223 224 226 229 231 233 235 234 235 239 240 238 238 239 236 234 233 234 235 237 240 242 243 244 243 242 241 243 245 247 249 250 250 251 251 251 251 252 253 255 257 260 263 265 267 269 271 273 275 276 278 278 279 280 282 283 285 287 288 289 290 291 292 293 294
218 218 219 219 220 221 223 225 226 227 228 229 229 229 228 226 224 222 222 221 222 223 225 227 229 232 234 236 237 238 241 242 241 239 239 238 236 235 236 237 238 240 243 245 245 245 244 243 244 246 247 248 249 250 252 253 254 255 255 256 257 258 260 262 264 267 269 272 274 276 277 279 280 281 283 284 285 286 287 288 289 290 291 292 293 294
219 219 220 221 221 222 223 225 226 227 228 228 228 228 227 226 224 223 222 222 223 224 226 229 231 233 235 237 239 241 242 243 243 240 238 238 237 236 236 237 238 240 243 245 246 246 245 245 246 247 247 248 249 251 252 254 255 256 257 258 259 260 262 264 266 268 270 272 274 275 277 279 280 282 283 284 285 286 287 287 288 290 291 292 294 294
219 220 221 222 222 222 223 225 226 227 228 228 228 228 228 227 226 224 223 223 224 225 227 229 233 235 236 237 239 241 242 242 242 241 239 238 238 237 237 237 238 240 243 245 246 245 245 246 246 247 248 249 250 251 252 254 256 257 259 261 262 264 265 267 268 270 272 273 275 276 278 279 281 282 283 284 285 286 287 288 289 291 292 293 294 294
217 218 219 221 221 221 222 223 224 225 227 228 228 229 229 229 228 227 225 223 224 225 227 230 233 235 237 238 239 241 241 240 238 238 239 239 238 238 237 238 239 240 241 243 244 245 245 246 247 248 250 251 252 254 255 256 258 260 262 263 265 266 267 269 270 272 273 274 276 277 279 280 281 282 284 285 286 287 288 289 291 292 293 294 294 294
216 217 218 219 219 218 219 221 222 224 226 227 227 228 230 230 229 229 228 226 225 225 227 230 233 235 237 238 238 239 239 238 236 236 238 238 238 239 239 239 240 240 241 242 243 244 245 246 247 249 251 253 255 256 257 259 260 261 263 264 266 267 269 270 272 273 274 275 277 278 280 281 282 283 284 286 287 288 289 290 291 292 293 294 294 295
212 214 216 218 218 217 217 219 220 221 224 226 227 228 230 231 231 231 231 230 229 228 228 229 232 234 235 236 237 236 236 236 236 237 238 239 239 241 242 242 243 242 242 242 242 243 245 247 248 250 251 253 255 256 258 259 260 262 263 265 267 269 270 271 272 274 275 276 278 279 280 281 283 284 285 286 287 288 289 290 291 292 293 294 294 295
206 210 212 214 215 214 215 218 220 220 222 225 227 228 230 231 232 232 232 232 233 232 231 231 233 233 233 234 236 235 234 234 236 238 240 240 242 243 244 245 245 245 245 244 243 243 244 246 248 250 251 253 254 256 257 259 261 263 265 267 268 270 271 272 273 274 276 277 278 279 281 282 283 284 285 286 287 288 289 291 291 292 293 294 295 296
200 203 206 208 210 210 210 213 216 218 220 223 225 227 229 230 231 232 232 233 234 233 232 232 232 230 229 230 232 233 234 235 237 239 241 242 243 244 245 246 247 247 246 246 245 245 246 247 249 250 252 254 255 256 258 260 262 264 266 268 269 270 271 272 274 275 276 277 278 279 281 282 283 283 284 286 287 288 289 290 291 292 293 294 295 296
Height
10572 10577 10587 10594 10598 10602 10604 10607 10613 10612 10611 10617 10621 10625 10628 10632 10641 10641 10640 10653 10659 10658 10664 10669 10670 10671 10686 10699 10699 10704 10709 10710 10714 10715 10718 10720 10722 10725 10727 10731 10734 10736 10740 10742 10741 10741 10743 10745 10749 10752 10754 10756 10756 10755 10756 10756 10758 10761 10761 10759 10759 10760 10759 10756 10755 10758 10760 10761 10762 10763 10765 10766 10763 10761 10762 10763 10764 10764 10767 10769 10768 10765 10763 10762 10762 10761
10567 10576 10586 10590 10591 10594 10596 10600 10604 10603 10606 10612 10616 10619 10623 10628 10636 10635 10636 10647 10655 10654 10657 10663 10664 10666 10680 10693 10694 10700 10706 10706 10709 10712 10715 10717 10719 10722 10724 10728 10730 10732 10735 10735 10735 10735 10736 10740 10744 10747 10749 10752 10752 10752 10752 10752 10755 10758 10758 10756 10755 10757 10754 10750 10752 10755 10755 10756 10758 10759 10762 10763 10761 10761 10762 10761 10761 10763 10765 10765 10763 10761 10760 10759 10759 10758
10566 10576 10581 10581 10583 10587 10589 10593 10596 10598 10601 10605 10611 10615 10620 10626 10629 10631 10633 10642 10651 10650 10650 10657 10657 10658 10675 10688 10691 10696 10700 10700 10704 10707 10711 10713 10715 10718 10720 10724 10726 10728 10730 10731 10731 10731 10732 10735 10739 10742 10745 10748 10748 10748 10750 10749 10751 10754 10754 10752 10752 10752 10751 10750 10751 10750 10749 10750 10754 10756 10757 10758 10758 10758 10758 10757 10756 10758 10759 10758 10757 10757 10756 10756 10755 10754
10564 10571 10572 10572 10576 10580 10583 10587 10590 10593 10595 10600 10607 10611 10618 10621 10622 10629 10631 10636 10647 10646 10643 10650 10649 10653 10673 10686 10686 10690 10693 10696 10700 10703 10706 10708 10710 10714 10717 10719 10721 10723 10725 10727 10729 10730 10731 10733 10735 10738 10741 10744 10743 10743 10745 10746 10747 10749 10749 10748 10748 10748 10749 10750 10750 10747 10746 10748 10751 10752 10752 10753 10754 10753 10753 10751 10750 10751 10751 10752 10752 10752 10752 10752 10751 10750
10558 10560 10560 10563 10569 10574 10579 10582 10585 10588 10591 10598 10604 10608 10614 10616 10619 10627 10624 10628 10641 10639 10636 10643 10644 10652 10673 10681 10681 10685 10688 10692 10695 10697 10701 10703 10705 10709 10711 10714 10716 10719 10722 10723 10724 10725 10728 10731 10733 10735 10736 10737 10737 10738 10740 10742 10743 10744 10745 10745 10745 10745 10747 10749 10747 10745 10746 10747 10747 10748 10748 10749 10749 10748 10747 10745 10745 10745 10746 10747 10747 10748 10747 10747 10747 10746
10549 10550 10552 10558 10564 10569 10574 10577 10581 10584 10588 10595 10600 10605 10610 10611 10616 10619 10613 10622 10636 10634 10631 10638 10642 10653 10668 10674 10676 10681 10683 10686 10689 10692 10696 10698 10701 10703 10705 10709 10714 10718 10719 10719 10720 10721 10724 10727 10729 10730 10730 10731 10732 10734 10736 10738 10739 10739 10740 10741 10742 10743 10744 10745 10743 10742 10743 10744 10743 10743 10744 10745 10744 10743 10742 10741 10741 10741 10742 10743 10743 10744 10743 10743 10743 10742
10541 10544 10548 10555 10559 10564 10568 10571 10577 10580 10584 10592 10597 10602 10604 10606 10611 10609 10607 10621 10632 10629 10627 10632 10640 10651 10661 10668 10672 10675 10676 10679 10684 10687 10691 10694 10696 10698 10701 10706 10711 10715 10717 10717 10718 10719 10720 10722 10724 10725 10725 10726 10728 10730 10733 10734 10735 10736 10736 10738 10739 10741 10741 10741 10739 10739 10740 10741 10740 10740 10740 10740 10739 10738 10737 10737 10738 10738 10739 10740 10740 10740 10740 10739 10739 10738
10537 10540 10544 10549 10554 10558 10563 10569 10574 10576 10580 10589 10594 10596 10597 10600 10603 10602 10606 10619 10626 10624 10622 10628 10638 10646 10655 10662 10665 10667 10670 10674 10680 10684 10686 10688 10690 10694 10698 10702 10707 10711 10714 10715 10714 10714 10715 10717 10719 10720 10721 10722 10725 10729 10730 10730 10732 10734 10734 10734 10736 10738 10738 10737 10737 10737 10738 10738 10738 10737 10737 10736 10734 10734 10734 10734 10735 10736 10737 10737 10737 10737 10736 10735 10735 10734
10530 10533 10539 10544 10548 10554 10560 10567 10570 10570 10576 10585 10588 10588 10589 10594 10598 10600 10605 10613 10618 10618 10618 10625 10635 10643 10651 10657 10658 10663 10668 10673 10677 10679 10682 10684 10686 10690 10693 10696 10703 10708 10710 10709 10707 10708 10711 10713 10714 10716 10718 10720 10724 10726 10727 10728 10729 10730 10730 10731 10733 10734 10735 10734 10735 10736 10736 10736 10735 10734 10733 10732 10731 10732 10732 10733 10733 10734 10734 10734 10733 10732 10731 10731 10730 10730
10522 10529 10534 10538 10543 10550 10556 10561 10563 10565 10572 10579 10581 10580 10583 10589 10593 10596 10601 10605 10610 10614 10616 10624 10635 10642 10647 10650 10655 10662 10667 10670 10671 10673 10677 10681 10683 10686 10688 10691 10698 10703 10702 10700 10701 10703 10706 10708 10711 10714 10716 10717 10720 10723 10724 10725 10725 10726 10727 10728 10729 10731 10732 10732 10733 10733 10733 10732 10732 10731 10729 10729 10729 10729 10730 10730 10731 10731 10730 10730 10729 10728 10727 10727 10726 10726
10518 10522 10526 10532 10539 10544 10548 10554 10558 10561 10569 10573 10572 10573 10578 10585 10587 10592 10597 10599 10606 10614 10618 10625 10634 10639 10640 10643 10652 10658 10661 10664 10665 10668 10674 10676 10678 10681 10685 10688 10692 10695 10694 10693 10696 10698 10700 10705 10710 10712 10712 10712 10716 10720 10720 10720 10722 10724 10724 10724 10725 10727 10728 10729 10729 10729 10729 10729 10729 10728 10727 10726 10727 10727 10728 10728 10728 10728 10726 10725 10724 10723 10723 10722 10722 10721
10514 10516 10523 10529 10532 10537 10543 10549 10553 10557 10564 10564 10564 10570 10576 10580 10582 10588 10593 10597 10608 10618 10620 10623 10629 10632 10631 10638 10649 10652 10654 10659 10662 10665 10669 10671 10673 10676 10681 10684 10686 10687 10687 10687 10689 10691 10696 10703 10707 10707 10707 10709 10713 10715 10715 10716 10719 10720 10721 10721 10722 10723 10724 10725 10725 10724 10724 10725 10725 10725 10725 10725 10725 10726 10726 10726 10725 10724 10722 10721 10719 10719 10719 10718 10717 10716
10507 10510 10518 10522 10527 10535 10541 10544 10547 10553 10557 10556 10560 10569 10573 10575 10580 10587 10593 10601 10613 10616 10614 10616 10620 10622 10626 10635 10645 10647 10649 10655 10657 10659 10662 10666 10669 10672 10677 10679 10679 10681 10682 10683 10683 10686 10694 10700 10700 10702 10704 10706 10708 10709 10710 10713 10715 10717 10717 10718 10719 10719 10720 10721 10721 10720 10721 10722 10722 10722 10722 10722 10723 10723 10723 10722 10720 10719 10717 10716 10715 10715 10714 10713 10712 10711
10498 10504 10513 10520 10527 10534 10537 10539 10544 10552 10554 10552 10560 10569 10571 10574 10580 10587 10594 10603 10609 10607 10606 10608 10611 10618 10626 10632 10639 10641 10644 10650 10653 10654 10657 10662 10666 10670 10673 10674 10675 10677 10678 10677 10677 10683 10691 10692 10693 10698 10701 10702 10704 10705 10706 10709 10712 10713 10714 10715 10716 10716 10717 10718 10717 10717 10718 10719 10719 10719 10719 10719 10719 10718 10717 10716 10714 10713 10712 10712 10711 10710 10710 10708 10707 10706
10494 10505 10516 10521 10524 10528 10531 10534 10541 10549 10549 10548 10559 10566 10567 10572 10578 10586 10593 10598 10600 10600 10600 10601 10606 10619 10625 10625 10630 10636 10640 10644 10649 10651 10653 10658 10664 10667 10670 10671 10673 10674 10672 10670 10673 10681 10686 10687 10690 10695 10696 10698 10699 10701 10703 10705 10707 10708 10710 10712 10713 10713 10714 10714 10714 10714 10715 10715 10715 10715 10715 10715 10714 10713 10711 10710 10709 10708 10707 10707 10706 10705 10704 10703 10702 10701
10494 10504 10513 10515 10516 10520 10525 10528 10535 10542 10541 10543 10553 10560 10565 10570 10576 10582 10585 10587 10590 10591 10593 10595 10604 10615 10616 10616 10625 10633 10637 10640 10646 10649 10650 10653 10660 10664 10667 10667 10667 10667 10665 10666 10672 10680 10684 10684 10686 10690 10691 10693 10695 10697 10699 10701 10702 10704 10706 10708 10708 10708 10709 10710 10710 10710 10710 10710 10710 10710 10710 10709 10708 10707 10706 10705 10704 10703 10702 10701 10701 10700 10699 10698 10696 10696
10492 10499 10504 10505 10507 10514 10520 10523 10530 10537 10537 10539 10550 10561 10566 10567 10567 10571 10574 10579 10584 10586 10590 10595 10602 10610 10612 10615 10623 10631 10635 10638 10642 10647 10647 10649 10655 10660 10661 10660 10659 10661 10661 10663 10672 10680 10681 10679 10681 10684 10686 10688 10690 10693 10695 10696 10698 10700 10701 10702 10703 10704 10705 10705 10706 10706 10706 10705 10705 10705 10705 10704 10703 10702 10701 10700 10699 10698 10697 10696 10695 10695 10694 10693 10692 10691
10484 10492 10497 10497 10501 10509 10514 10516 10522 10531 10531 10536 10552 10562 10558 10552 10554 10563 10570 10576 10580 10584 10589 10594 10599 10607 10610 10613 10620 10627 10631 10633 10638 10643 10643 10645 10651 10654 10652 10652 10655 10657 10656 10661 10671 10675 10674 10673 10676 10680 10682 10683 10685 10688 10690 10692 10694 10694 10695 10696 10697 10698 10699 10699 10700 10700 10700 10700 10699 10700 10699 10699 10698 10697 10696 10695 10694 10693 10692 10691 10691 10690 10689 10688 10687 10686
10477 10486 10490 10491 10496 10503 10506 10509 10518 10528 10529 10536 10549 10550 10543 10544 10554 10563 10569 10574 10579 10583 10589 10592 10596 10602 10605 10609 10616 10622 10625 10628 10633 10636 10638 10642 10647 10646 10645 10648 10650 10650 10651 10658 10666 10667 10667 10669 10673 10676 10677 10679 10680 10682 10685 10686 10687 10688 10689 10690 10691 10692 10692 10693 10693 10694 10694 10694 10694 10694 10694 10693 10692 10692 10691 10690 10689 10688 10688 10687 10686 10685 10684 10683 10682 10682
10473 10480 10484 10486 10491 10496 10500 10507 10519 10527 10527 10532 10539 10539 10539 10547 10555 10561 10567 10573 10577 10580 10585 10588 10592 10598 10602 10606 10613 10616 10620 10624 10627 10629 10633 10639 10640 10638 10641 10645 10644 10643 10646 10653 10659 10661 10662 10665 10669 10672 10673 10674 10675 10677 10679 10680 10680 10682 10683 10684 10685 10685 10686 10686 10687 10688 10689 10689 10689 10689 10689 10688 10688 10687 10686 10685 10684 10684 10683 10682 10681 10680 10679 10678 10677 10677
10468 10474 10479 10482 10486 10494 10502 10512 10520 10523 10523 10526 10533 10539 10543 10547 10552 10557 10564 10569 10571 10576 10581 10584 10589 10596 10599 10602 10607 10611 10615 10618 10620 10623 10629 10632 10632 10634 10639 10641 10639 10639 10642 10648 10653 10655 10658 10662 10666 10667 10668 10669 10671 10673 10673 10673 10674 10676 10677 10678 10678 10679 10680 10681 10682 10683 10683 10683 10684 10684 10684 10684 10683 10682 10681 10680 10679 10679 10678 10676 10675 10674 10673 10672 10672 10671
10465 10470 10477 10479 10484 10496 10505 10509 10512 10514 10516 10521 10530 10538 10541 10542 10548 10554 10561 10566 10569 10574 10577 10580 10586 10591 10592 10595 10601 10606 10609 10612 10614 10618 10623 10626 10628 10633 10636 10636 10635 10636 10638 10642 10648 10651 10654 10659 10662 10662 10663 10665 10666 10667 10667 10668 10668 10670 10671 10672 10672 10673 10673 10675 10676 10677 10677 10678 10678 10679 10678 10678 10678 10678 10677 10675 10675 10674 10673 10671 10670 10669 10668 10667 10667 10666
10461 10466 10474 10477 10484 10495 10498 10499 10503 10507 10512 10517 10525 10534 10534 10536 10544 10552 10559 10563 10566 10569 10572 10575 10578 10580 10584 10589 10595 10599 10603 10606 10609 10613 10619 10623 10626 10629 10631 10630 10630 10632 10634 10638 10643 10646 10650 10654 10656 10657 10658 10660 10661 10662 10662 10663 10664 10665 10666 10666 10667 10667 10668 10670 10671 10672 10672 10673 10673 10673 10673 10673 10673 10673 10672 10671 10670 10669 10667 10666 10665 10665 10663 10662 10661 10660
10455 10461 10470 10474 10480 10487 10489 10491 10497 10502 10508 10514 10523 10530 10530 10534 10543 10550 10553 10555 10557 10561 10565 10568 10571 10575 10583 10588 10591 10595 10599 10601 10604 10609 10616 10621 10622 10623 10624 10623 10624 10627 10629 10633 10638 10642 10645 10649 10651 10652 10654 10655 10656 10657 10657 10658 10659 10660 10660 10661 10662 10663 10664 10665 10666 10666 10667 10668 10668 10668 10668 10668 10668 10667 10666 10665 10665 10664 10662 10661 10660 10659 10658 10657 10655 10655
10452 10459 10468 10471 10476 10482 10485 10489 10496 10504 10511 10517 10523 10527 10529 10533 10539 10542 10543 10545 10550 10557 10562 10566 10568 10574 10582 10585 10587 10592 10595 10596 10598 10604 10612 10617 10616 10616 10617 10616 10618 10621 10624 10629 10634 10637 10640 10644 10646 10648 10650 10651 10651 10652 10653 10654 10654 10654 10655 10656 10657 10657 10659 10660 10660 10661 10662 10663 10664 10663 10663 10662 10662 10661 10660 10660 10659 10658 10657 10656 10655 10653 10652 10651 10649 10649
10448 10456 10465 10471 10475 10482 10488 10494 10501 10507 10512 10514 10517 10521 10524 10528 10532 10536 10538 10542 10549 10557 10560 10561 10563 10569 10576 10579 10581 10586 10590 10591 10592 10599 10609 10612 10610 10609 10610 10610 10613 10616 10620 10624 10628 10632 10637 10640 10643 10645 10646 10646 10647 10648 10648 10648 10648 10649 10651 10651 10651 10652 10653 10655 10656 10656 10657 10657 10658 10658 10657 10657 10657 10656 10655 10654 10653 10652 10651 10650 10649 10648 10647 10645 10644 10643
10449 10455 10464 10469 10473 10478 10484 10489 10492 10497 10502 10506 10509 10514 10519 10523 10528 10532 10535 10541 10548 10553 10555 10555 10557 10564 10572 10574 10576 10580 10585 10586 10588 10597 10605 10604 10602 10602 10603 10605 10608 10611 10615 10619 10623 10629 10634 10637 10640 10642 10642 10642 10642 10643 10643 10643 10643 10644 10646 10645 10645 10646 10647 10649 10650 10651 10651 10651 10651 10652 10652 10652 10651 10650 10649 10648 10647 10646 10645 10644 10643 10642 10641 10640 10639 10637
10448 10453 10462 10467 10468 10471 10476 10480 10483 10488 10494 10498 10501 10509 10515 10519 10523 10526 10531 10539 10544 10548 10553 10552 10552 10560 10568 10569 10572 10575 10578 10582 10587 10593 10596 10594 10594 10596 10598 10601 10603 10607 10611 10614 10619 10625 10629 10633 10636 10637 10636 10636 10637 10638 10639 10638 10638 10639 10640 10639 10639 10640 10641 10643 10644 10645 10646 10646 10645 10646 10646 10646 10645 10644 10643 10642 10641 10640 10639 10638 10637 10637 10636 10635 10633 10632
10444 10451 10459 10461 10463 10466 10472 10476 10479 10484 10490 10492 10497 10505 10510 10512 10517 10523 10529 10535 10539 10545 10549 10546 10546 10556 10562 10564 10567 10571 10574 10580 10583 10585 10586 10587 10589 10591 10593 10597 10599 10603 10607 10611 10615 10620 10625 10630 10632 10631 10631 10632 10634 10634 10634 10633 10633 10633 10634 10634 10634 10635 10636 10638 10639 10641 10641 10641 10640 10640 10640 10640 10639 10638 10638 10636 10635 10635 10634 10633 10632 10631 10631 10629 10627 10626
10443 10449 10454 10456 10459 10463 10466 10470 10476 10482 10487 10491 10496 10503 10505 10507 10513 10520 10525 10529 10534 10539 10541 10539 10543 10551 10555 10559 10564 10568 10571 10575 10575 10575 10578 10580 10582 10585 10588 10592 10595 10599 10603 10607 10611 10617 10623 10627 10627 10627 10627 10629 10631 10630 10627 10627 10628 10628 10629 10629 10630 10631 10632 10633 10635 10636 10636 10636 10635 10635 10634 10634 10633 10632 10632 10631 10630 10629 10628 10627 10627 10626 10625 10623 10621 10620
10440 10444 10448 10450 10454 10458 10461 10467 10474 10480 10483 10487 10493 10498 10501 10505 10510 10515 10519 10524 10529 10533 10535 10536 10541 10547 10551 10556 10561 10565 10567 10568 10567 10570 10573 10575 10577 10580 10584 10587 10591 10595 10599 10604 10609 10615 10620 10622 10622 10622 10621 10624 10626 10624 10622 10624 10625 10625 10625 10625 10626 10627 10628 10629 10630 10630 10631 10630 10630 10629 10628 10628 10627 10626 10626 10625 10624 10624 10623 10622 10621 10620 10619 10617 10616 10614
10433 10437 10442 10446 10450 10455 10459 10465 10471 10475 10478 10483 10489 10495 10499 10503 10508 10512 10515 10520 10525 10527 10530 10533 10537 10541 10546 10552 10557 10560 10561 10563 10564 10567 10570 10571 10574 10577 10580 10584 10588 10592 10596 10602 10608 10613 10615 10615 10615 10615 10617 10622 10623 10620 10620 10622 10622 10621 10621 10620 10621 10622 10623 10624 10625 10626 10626 10625 10624 10624 10623 10622 10622 10621 10620 10620 10619 10618 10617 10616 10615 10614 10613 10612 10611 10609
10429 10435 10441 10445 10449 10453 10456 10460 10466 10471 10476 10482 10488 10492 10496 10500 10504 10508 10512 10517 10521 10522 10525 10529 10532 10536 10540 10546 10550 10552 10554 10556 10558 10561 10564 10566 10569 10572 10576 10581 10585 10589 10594 10599 10604 10607 10608 10608 10609 10611 10616 10621 10619 10616 10617 10619 10617 10616 10614 10614 10615 10617 10617 10619 10620 10620 10620 10620 10619 10619 10618 10617 10617 10616 10615 10615 10614 10612 10611 10610 10609 10608 10608 10606 10605 10603
10428 10435 10438 10442 10445 10447 10451 10456 10463 10470 10476 10481 10484 10487 10490 10494 10498 10503 10508 10512 10515 10517 10521 10526 10529 10531 10536 10542 10545 10545 10546 10549 10552 10555 10559 10562 10564 10568 10573 10578 10583 10587 10591 10594 10598 10600 10601 10603 10606 10609 10613 10613 10612 10611 10612 10612 10611 10610 10609 10609 10610 10612 10613 10613 10614 10615 10615 10614 10614 10614 10613 10613 10612 10612 10611 10609 10608 10606 10605 10604 10603 10603 10602 10600 10599 10596
10426 10430 10433 10437 10440 10442 10448 10455 10461 10468 10473 10475 10477 10480 10485 10489 10493 10498 10502 10507 10511 10514 10519 10523 10525 10527 10533 10538 10540 10541 10543 10547 10551 10554 10557 10558 10560 10564 10570 10575 10580 10582 10585 10588 10590 10594 10597 10600 10603 10606 10606 10605 10605 10606 10604 10605 10607 10606 10605 10606 10606 10607 10608 10608 10608 10609 10609 10609 10609 10609 10609 10609 10607 10606 10605 10604 10602 10601 10599 10598 10598 10597 10596 10594 10592 10589
10423 10426 10429 10433 10435 10439 10446 10453 10458 10462 10466 10468 10470 10475 10479 10483 10488 10493 10497 10502 10508 10511 10515 10519 10521 10523 10528 10533 10535 10538 10542 10546 10548 10551 10553 10554 10555 10559 10565 10570 10573 10575 10577 10581 10584 10589 10593 10595 10597 10598 10598 10598 10600 10601 10600 10602 10605 10603 10600 10601 10602 10601 10601 10602 10602 10602 10602 10603 10604 10604 10604 10603 10602 10601 10600 10598 10596 10595 10593 10592 10592 10591 10589 10588 10585 10583
10420 10423 10427 10430 10432 10436 10443 10448 10451 10456 10461 10464 10467 10471 10475 10478 10483 10488 10493 10498 10503 10507 10511 10515 10517 10519 10524 10529 10532 10535 10539 10541 10543 10547 10549 10549 10550 10555 10561 10564 10566 10568 10571 10575 10579 10583 10586 10588 10590 10592 10593 10593 10595 10597 10597 10601 10605 10602 10597 10596 10596 10595 10595 10596 10597 10597 10597 10598 10599 10599 10598 10597 10596 10595 10593 10592 10590 10588 10586 10585 10585 10584 10583 10581 10578 10575
10416 10420 10424 10426 10428 10433 10439 10443 10448 10453 10457 10460 10463 10467 10472 10475 10479 10484 10489 10494 10498 10502 10506 10510 10512 10515 10519 10523 10526 10530 10534 10535 10537 10542 10544 10542 10545 10551 10556 10557 10559 10563 10566 10569 10572 10576 10579 10582 10583 10586 10587 10588 10590 10592 10593 10597 10601 10598 10592 10589 10589 10590 10591 10592 10592 10592 10593 10593 10594 10594 10593 10592 10591 10589 10588 10586 10584 10582 10580 10578 10578 10577 10575 10573 10571 10568
10413 10417 10420 10424 10427 10432 10437 10441 10446 10450 10453 10456 10460 10464 10469 10473 10476 10480 10485 10490 10495 10498 10501 10505 10508 10510 10513 10516 10521 10526 10528 10527 10530 10535 10534 10534 10540 10547 10550 10552 10555 10559 10561 10563 10566 10570 10574 10576 10578 10580 10581 10582 10583 10586 10588 10591 10592 10590 10586 10584 10584 10586 10587 10587 10588 10589 10589 10589 10589 10589 10588 10587 10585 10584 10582 10580 10579 10576 10574 10572 10570 10569 10567 10565 10562 10560
10411 10415 10419 10423 10427 10430 10434 10438 10443 10447 10450 10454 10457 10461 10465 10468 10472 10476 10481 10486 10491 10493 10497 10502 10503 10505 10507 10509 10516 10522 10520 10519 10524 10527 10525 10529 10539 10544 10545 10547 10550 10554 10555 10557 10560 10565 10568 10571 10573 10574 10574 10575 10577 10580 10583 10584 10584 10583 10582 10581 10581 10581 10582 10582 10583 10584 10585 10585 10584 10584 10583 10582 10580 10578 10576 10574 10573 10571 10568 10566 10563 10561 10559 10557 10555 10552
10409 10414 10418 10422 10425 10427 10431 10435 10439 10444 10448 10450 10453 10456 10460 10464 10467 10472 10478 10483 10486 10489 10494 10497 10497 10500 10501 10503 10511 10516 10512 10513 10521 10522 10520 10527 10536 10538 10538 10541 10544 10548 10550 10552 10556 10560 10563 10565 10567 10567 10567 10569 10572 10574 10576 10578 10579 10579 10578 10577 10577 10577 10577 10577 10578 10579 10580 10580 10580 10579 10578 10576 10574 10572 10570 10568 10567 10565 10562 10560 10558 10555 10553 10550 10548 10545
10407 10411 10415 10418 10421 10424 10428 10431 10435 10440 10444 10446 10449 10453 10456 10460 10464 10470 10474 10478 10481 10485 10490 10491 10493 10496 10496 10498 10506 10509 10506 10511 10519 10518 10517 10524 10531 10531 10532 10536 10539 10543 10545 10547 10550 10553 10557 10559 10560 10560 10562 10564 10566 10568 10571 10572 10573 10573 10573 10573 10573 10573 10573 10573 10573 10574 10574 10574 10574 10573 10572 10570 10568 10566 10564 10562 10560 10558 10556 10554 10551 10549 10546 10544 10541 10539
10404 10407 10411 10414 10417 10420 10424 10427 10432 10436 10439 10442 10446 10449 10452 10457 10462 10466 10469 10472 10476 10481 10484 10486 10489 10491 10491 10495 10501 10502 10503 10511 10516 10514 10515 10521 10525 10526 10528 10532 10536 10539 10540 10542 10545 10547 10550 10552 10553 10554 10557 10559 10560 10562 10564 10566 10567 10567 10567 10568 10568 10568 10569 10569 10568 10569 10569 10568 10568 10567 10565 10563 10562 10560 10558 10556 10554 10552 10549 10547 10545 10542 10540 10537 10535 10532
10401 10404 10407 10410 10413 10417 10420 10424 10429 10432 10434 10437 10441 10444 10448 10452 10456 10459 10463 10468 10472 10476 10479 10481 10484 10485 10487 10492 10496 10499 10504 10509 10509 10509 10513 10516 10517 10519 10523 10527 10531 10533 10534 10536 10539 10541 10543 10545 10546 10548 10550 10552 10554 10555 10557 10559 10561 10561 10562 10563 10563 10563 10564 10564 10564 10564 10563 10562 10561 10560 10558 10556 10555 10553 10551 10549 10546 10544 10542 10540 10538 10536 10533 10531 10529 10526
10397 10400 10403 10406 10410 10413 10417 10421 10425 10428 10429 10433 10436 10439 10443 10447 10451 10455 10460 10465 10469 10472 10474 10477 10479 10481 10485 10489 10493 10497 10502 10503 10503 10505 10508 10508 10510 10514 10518 10521 10525 10527 10529 10532 10533 10535 10537 10539 10540 10542 10543 10546 10548 10549 10551 10554 10554 10554 10555 10557 10557 10558 10559 10559 10559 10558 10557 10556 10555 10553 10551 10549 10548 10546 10544 10541 10539 10537 10535 10533 10531 10529 10527 10524 10522 10519
10392 10396 10400 10402 10404 10409 10414 10418 10421 10424 10427 10430 10432 10435 10438 10443 10447 10452 10457 10461 10464 10467 10471 10473 10475 10478 10481 10485 10488 10492 10495 10496 10499 10501 10501 10501 10504 10509 10512 10516 10519 10521 10524 10526 10527 10529 10531 10532 10534 10535 10536 10539 10541 10542 10545 10547 10547 10548 10550 10550 10551 10552 10552 10552 10552 10552 10551 10550 10548 10546 10545 10542 10541 10539 10536 10534 10533 10530 10528 10526 10524 10522 10520 10517 10515 10512
10389 10392 10395 10397 10401 10406 10410 10413 10416 10420 10423 10426 10429 10432 10435 10439 10443 10448 10452 10456 10460 10464 10467 10469 10471 10473 10476 10480 10484 10486 10488 10491 10493 10494 10493 10495 10500 10504 10507 10510 10513 10515 10518 10519 10521 10522 10524 10525 10527 10528 10530 10532 10534 10536 10539 10540 10541 10542 10543 10543 10545 10546 10545 10546 10545 10544 10543 10542 10541 10539 10537 10535 10533 10531 10529 10528 10526 10523 10521 10519 10517 10516 10513 10511 10508 10505
10386 10389 10391 10394 10398 10401 10404 10408 10413 10417 10420 10422 10425 10429 10432 10435 10439 10443 10447 10451 10455 10459 10462 10465 10467 10468 10472 10476 10479 10480 10482 10485 10487 10487 10488 10491 10495 10499 10502 10504 10506 10509 10512 10513 10514 10516 10517 10519 10521 10522 10524 10526 10527 10530 10532 10532 10533 10534 10535 10536 10538 10538 10539 10538 10538 10537 10536 10534 10533 10532 10530 10528 10526 10524 10522 10521 10519 10517 10515 10513 10511 10509 10507 10504 10502 10499
10383 10385 10387 10390 10394 10397 10401 10406 10410 10412 10414 10417 10421 10426 10429 10432 10435 10439 10442 10446 10450 10454 10457 10460 10463 10464 10467 10470 10472 10474 10477 10480 10481 10482 10484 10487 10491 10494 10497 10498 10500 10503 10506 10507 10509 10510 10511 10513 10515 10516 10518 10520 10521 10523 10524 10525 10525 10526 10528 10529 10531 10531 10531 10531 10530 10529 10528 10527 10526 10524 10522 10521 10519 10517 10516 10514 10512 10510 10508 10506 10505 10503 10500 10497 10495 10492
10379 10382 10385 10388 10392 10396 10400 10402 10405 10408 10410 10413 10417 10421 10424 10428 10432 10435 10438 10442 10445 10448 10451 10455 10458 10459 10462 10464 10466 10469 10473 10476 10476 10478 10480 10483 10487 10489 10490 10492 10495 10497 10499 10501 10502 10504 10506 10508 10509 10510 10512 10513 10514 10515 10516 10517 10518 10520 10521 10523 10523 10524 10524 10523 10522 10521 10520 10519 10518 10517 10515 10514 10513 10511 10509 10507 10505 10504 10502 10500 10498 10496 10493 10491 10488 10485
10377 10380 10384 10387 10390 10393 10395 10398 10403 10407 10408 10409 10413 10417 10420 10424 10428 10431 10434 10437 10440 10443 10446 10449 10452 10454 10456 10459 10462 10465 10469 10471 10472 10474 10477 10480 10481 10483 10485 10487 10489 10490 10492 10494 10497 10499 10501 10503 10503 10504 10505 10506 10507 10508 10510 10511 10512 10514 10515 10515 10516 10516 10516 10515 10514 10514 10513 10512 10511 10510 10508 10507 10506 10504 10502 10501 10499 10497 10496 10494 10492 10489 10487 10484 10481 10478